Showing default

YAOGAN-39 05A, 58557

Orbit data source: Space-Track

YAOGAN-39 05A, 58557 is a payload satellite owned by PLA GAD (CN) in LEO that was launched on Sun, 10 Dec 2023 UTC via a CHANG ZHENG 2D launch vehicle from the Xichang Space Center, China (XSC). Payload-class satellites include a variety of spacecraft equipped with specific instruments for various scientific and technological missions. These include communications satellites like Starlink; space stations such as the ISS; scientific satellites like the Hubble; Earth observation satellites from companies like Planet Labs, Umbra, and HawkEye 360; GPS; miniature CubeSats for education and research; and military/defense satellites.

Loading next visibility...
Identifier
58557, 2023-194A
Orbit
LEO
Country
Flag of CNCN / PRC
Related business
Manufacturer
DFH
Mission
Operational Defense Sigint
Bus & Motor
Unknown
Mass
~300 kg wet, ~300 kg dry
Launch date (UTC)
2023-12-10 (3 years ago)
Launch vehicle
CHANG ZHENG 2D
Launch site
Xichang Space Center, China (XSC)
Object type
Payload
Rocket body
Debris
Shape & HBR
Box + 2 Pan, 2.5 m
Radar Cross Section
11.063 m², Large (>1 m²)

Expand to show TLE details & history
Last TLE update: 1 day ago

TLE from 1 day ago
0 YAOGAN-39 05A
1 58557U 23194A   26172.29397992  .00007450  00000-0  31078-3 0  9995
2 58557  35.0023  31.5463 0006381 341.9195  18.1292 15.22951954140985
Epoch: 2026-06-21T07:03Z
TLE epoch observation values (Epoch: 2026-06-21T07:03:19.865Z)
Latitude
-0.00001°
Longitude
16.2172°
Altitude
491.682 km
Speed
7.624 km/s
True Right ascension
02h 06m 11s
True Declination
0° 00' 00"
Sunlit
Object was in daylight at epoch
Visualization orbit readout
Latitude
Unknown
Longitude
Unknown
Altitude
Unknown
Speed
Unknown
Apparent Right ascension
Unknown
Apparent Declination
Unknown
Sunlit
N/A
Visualization observer readout
Local Sidereal Time
21:29:02
Azimuth
Unknown
Elevation
Unknown
Doppler factor
Unknown
Orbital elements
Apogee altitude
504.581 km
Perigee altitude
495.803 km
Semi-major axis
6,878.329 km
Eccentricity
0.00064
Inclination
35.0023°
RAAN
31.5463°
Arg. of periapsis
341.9195°
True anomaly
18.15197°
Mean anomaly
18.1292°
Eccentric anomaly
18.14058°
Mean motion
3.80469 °/min
Orbital period
94.62 mins
BSTAR
0.00031078
Loading maneuver chart data...
Computing Atmospheric mass density...
Loading historical data...
Loading historical data...
Loading historical data...
Loading historical data...
Loading historical data...
Loading historical data...
Loading historical data...
Other satellites on launch #194 in the year 2023 (2023-12-10 UTC)

Documentation

Showing up to 5 results
|